User: anonymous   Login
Location: Unspecified
(0.0000°N, 0.0000°E)
Time: 00:03:19
(UTC+00:00)
Language:

Explorer 27 - Orbit

View from above orbital plane
View from above orbital plane
View from above satellite
View from above satellite

Ground track
Ground track

The orbit data is extracted from the following two-line orbital elements,

1 01328U 65032A   17264.72578060 -.00000033  00000-0  71464-4 0  9998
2 01328  41.1870 344.7639 0250596 271.2348  85.9709 13.38540106561198
Epoch (UTC): 21 September 2017 17:25:07
Eccentricity: 0.0250596
inclination: 41.1870°
perigee height: 927 km
apogee height: 1302 km
right ascension of ascending node: 344.7639°
argument of perigee: 271.2348°
revolutions per day: 13.38540106
mean anomaly at epoch: 85.9709°
orbit number at epoch: 56119

The dashed part of the orbit path shows where the satellite is in the earth's shadow,  

DLR